Rutland, VT

7:24 AM EST on February 20, 2018 (GMT -0500)
Rutland State

Weather History for KRUT - April, 2013

Change the Weather History Date:

Saturday, April 20, 2013

  Actual Average Record
Temperature  
Mean Temperature 41 °F -  
Max Temperature 48 °F - 82 °F (1987)
Min Temperature 34 °F - 23 °F (1961)
Degree Days  
Heating Degree Days 24    
Month to date heating degree days 467  
Since 1 July heating degree days 6390  
Cooling Degree Days 0    
Month to date cooling degree days 0  
Year to date cooling degree days 0  
Moisture  
Dew Point 29 °F    
Average Humidity 64    
Maximum Humidity 92    
Minimum Humidity 36    
Precipitation  
Precipitation 0.06 in - 1.14 in (1969)
Month to date precipitation 1.89  
Year to date precipitation 4.51  
Sea Level Pressure  
Sea Level Pressure 29.88 in    
Wind  
Wind Speed 11 mph (West)    
Max Wind Speed 21 mph    
Max Gust Speed 29 mph    
Visibility 10 miles    
Events      
T = Trace of Precipitation, MM = Missing Value Source: NWS Daily Summary

Daily Weather History Graph

Daily Weather History Graph

Search for Another Location

Airport or City:

Trip Planner

Search our weather history database for the weather conditions in past years. The results will help you decide how hot, cold, wet, or windy it might be!

Date:

Astronomy

Apr. 20, 2013 Rise Set
Actual Time 6:00 AM EDT 7:41 PM EDT
Civil Twilight 5:30 AM EDT 8:11 PM EDT
Nautical Twilight 4:53 AM EDT 8:48 PM EDT
Astronomical Twilight 4:14 AM EDT 9:28 PM EDT
Moon 2:13 PM EDT 2:58 AM EDT
Length of Visible Light 14h 41m
Length of Day
13h 40m
Waxing Gibbous, 71% of the Moon is Illuminated
Apr 20
Waxing Gibbous
Apr 25
Full
May 2
Last Quarter
May 9
New
May 18
First Quarter

Hourly Weather History & Observations

Time (EDT) Temp. Windchill Dew Point Humidity Pressure Visibility Wind Dir Wind Speed Gust Speed Precip Events Conditions
12:35 AM 44.6 °F 38.8 °F 41.0 °F 87% 29.71 in 10.0 mi West 11.5 mph - 0.05 in   Overcast
12:55 AM 44.6 °F 38.8 °F 41.0 °F 87% 29.71 in 10.0 mi West 11.5 mph 17.3 mph 0.07 in   Overcast
1:15 AM 44.6 °F 39.7 °F 39.2 °F 81% 29.72 in 10.0 mi West 9.2 mph - N/A   Overcast
1:35 AM 44.6 °F 40.7 °F 39.2 °F 81% 29.72 in 10.0 mi WNW 6.9 mph - N/A   Overcast
1:55 AM 44.6 °F 39.2 °F 39.2 °F 81% 29.72 in 10.0 mi West 10.4 mph - N/A   Overcast
2:35 AM 42.8 °F 38.6 °F 39.2 °F 87% 29.73 in 10.0 mi NW 6.9 mph - 0.01 in   Overcast
2:55 AM 41.0 °F 36.4 °F 37.4 °F 87% 29.71 in 10.0 mi North 6.9 mph - 0.01 in   Overcast
3:15 AM 41.0 °F 35.8 °F 37.4 °F 87% 29.73 in 10.0 mi NNW 8.1 mph - 0.01 in   Overcast
3:35 AM 39.2 °F 35.9 °F 37.4 °F 93% 29.71 in 10.0 mi North 4.6 mph - 0.01 in   Overcast
3:55 AM 39.2 °F 35.9 °F 37.4 °F 93% 29.71 in 10.0 mi NW 4.6 mph - 0.02 in   Overcast
4:15 AM 39.2 °F 34.2 °F 37.4 °F 93% 29.74 in 10.0 mi NNW 6.9 mph - 0.01 in   Overcast
4:35 AM 39.2 °F 35.0 °F 37.4 °F 93% 29.74 in 10.0 mi NNW 5.8 mph - 0.02 in   Overcast
4:55 AM 39.2 °F 35.0 °F 37.4 °F 93% 29.74 in 10.0 mi North 5.8 mph - 0.03 in   Overcast
5:15 AM 39.2 °F 37.0 °F 37.4 °F 93% 29.74 in 10.0 mi NNW 3.5 mph - N/A   Overcast
5:35 AM 39.2 °F 37.0 °F 37.4 °F 93% 29.74 in 10.0 mi NW 3.5 mph - N/A   Overcast
5:55 AM 39.2 °F 35.9 °F 37.4 °F 93% 29.75 in 10.0 mi NW 4.6 mph - N/A   Overcast
6:15 AM 39.2 °F 35.9 °F 37.4 °F 93% 29.75 in 10.0 mi NW 4.6 mph - N/A   Overcast
6:35 AM 39.2 °F 35.9 °F 37.4 °F 93% 29.77 in 10.0 mi West 4.6 mph - N/A   Mostly Cloudy
6:55 AM 39.2 °F 35.0 °F 35.6 °F 87% 29.78 in 10.0 mi WSW 5.8 mph - N/A   Mostly Cloudy
7:15 AM 39.2 °F 34.2 °F 35.6 °F 87% 29.78 in 10.0 mi SW 6.9 mph - N/A   Overcast
7:35 AM 39.2 °F 37.0 °F 33.8 °F 81% 29.79 in 10.0 mi SSW 3.5 mph - N/A   Overcast
7:55 AM 39.2 °F 35.9 °F 33.8 °F 81% 29.80 in 10.0 mi West 4.6 mph - N/A   Overcast
8:15 AM 39.2 °F - 35.6 °F 87% 29.80 in 10.0 mi Calm Calm - N/A   Overcast
8:35 AM 41.0 °F 37.1 °F 33.8 °F 76% 29.79 in 10.0 mi WSW 5.8 mph - N/A   Overcast
8:55 AM 41.0 °F 36.4 °F 32.0 °F 70% 29.81 in 10.0 mi West 6.9 mph - N/A   Overcast
9:15 AM 42.8 °F 37.5 °F 30.2 °F 61% 29.80 in 10.0 mi WSW 9.2 mph - N/A   Overcast
9:35 AM 42.8 °F 38.0 °F 30.2 °F 61% 29.80 in 10.0 mi WNW 8.1 mph - N/A   Mostly Cloudy
9:55 AM 42.8 °F 36.6 °F 30.2 °F 61% 29.80 in 10.0 mi WSW 11.5 mph 17.3 mph N/A   Overcast
10:15 AM 42.8 °F 38.0 °F 30.2 °F 61% 29.81 in 10.0 mi West 8.1 mph - N/A   Overcast
10:35 AM 42.8 °F 34.8 °F 30.2 °F 61% 29.81 in 10.0 mi WSW 17.3 mph 24.2 mph N/A   Overcast
10:55 AM 42.8 °F 38.6 °F 30.2 °F 61% 29.82 in 10.0 mi West 6.9 mph - N/A   Overcast
11:15 AM 42.8 °F 38.0 °F 28.4 °F 57% 29.83 in 10.0 mi West 8.1 mph 20.7 mph N/A   Overcast
11:35 AM 42.8 °F 36.6 °F 30.2 °F 61% 29.84 in 10.0 mi WSW 11.5 mph - N/A   Overcast
11:55 AM 44.6 °F 41.4 °F 30.2 °F 57% 29.84 in 10.0 mi WNW 5.8 mph - N/A   Overcast
12:16 PM 44.6 °F 40.2 °F 28.4 °F 53% 29.85 in 10.0 mi WSW 8.1 mph 25.3 mph N/A   Overcast
12:35 PM 46.4 °F 41.5 °F 28.4 °F 50% 29.85 in 10.0 mi WSW 10.4 mph 23.0 mph N/A   Mostly Cloudy
1:15 PM 46.4 °F 40.1 °F 26.6 °F 46% 29.86 in 10.0 mi West 15.0 mph 21.9 mph N/A   Overcast
1:35 PM 48.2 °F - 26.6 °F 43% 29.87 in 10.0 mi WSW 16.1 mph 25.3 mph N/A   Mostly Cloudy
1:55 PM 48.2 °F - 26.6 °F 43% 29.87 in 10.0 mi SSW 15.0 mph 24.2 mph N/A   Mostly Cloudy
2:15 PM 48.2 °F - 23.0 °F 37% 29.88 in 10.0 mi West 15.0 mph 28.8 mph N/A   Overcast
2:35 PM 46.4 °F 40.1 °F 24.8 °F 43% 29.89 in 10.0 mi WSW 15.0 mph 28.8 mph N/A   Overcast
3:15 PM 46.4 °F 38.7 °F 23.0 °F 40% 29.91 in 10.0 mi WSW 20.7 mph 26.5 mph N/A   Overcast
3:35 PM 48.2 °F - 21.2 °F 34% 29.92 in 10.0 mi West 13.8 mph 33.4 mph N/A   Mostly Cloudy
3:55 PM 46.4 °F 40.1 °F 21.2 °F 37% 29.93 in 10.0 mi WNW 15.0 mph 27.6 mph N/A   Overcast
4:55 PM 46.4 °F 41.5 °F 21.2 °F 37% 29.97 in 10.0 mi West 10.4 mph 21.9 mph N/A   Mostly Cloudy
5:15 PM 46.4 °F 40.1 °F 19.4 °F 34% 29.98 in 10.0 mi West 15.0 mph 24.2 mph N/A   Overcast
5:35 PM 44.6 °F 38.8 °F 19.4 °F 37% 29.99 in 10.0 mi West 11.5 mph 21.9 mph N/A   Overcast
5:55 PM 44.6 °F 36.6 °F 21.2 °F 39% 30.01 in 10.0 mi WNW 19.6 mph 28.8 mph N/A   Mostly Cloudy
6:15 PM 44.6 °F 39.7 °F 21.2 °F 39% 30.03 in 10.0 mi WNW 9.2 mph 21.9 mph N/A   Mostly Cloudy
6:35 PM 44.6 °F 38.4 °F 19.4 °F 37% 30.04 in 10.0 mi West 12.7 mph 24.2 mph N/A   Mostly Cloudy
6:55 PM 42.8 °F 34.5 °F 17.6 °F 36% 30.06 in 10.0 mi WNW 18.4 mph 24.2 mph N/A   Scattered Clouds
7:35 PM 41.0 °F 33.1 °F 17.6 °F 39% 30.10 in 10.0 mi WNW 15.0 mph 21.9 mph N/A   Mostly Cloudy
7:55 PM 39.2 °F 30.8 °F 15.8 °F 39% 30.12 in 10.0 mi WNW 15.0 mph 23.0 mph N/A   Mostly Cloudy
8:15 PM 39.2 °F 29.3 °F 17.6 °F 42% 30.13 in 10.0 mi West 20.7 mph 26.5 mph N/A   Partly Cloudy
8:35 PM 39.2 °F 29.8 °F 15.8 °F 39% 30.15 in 10.0 mi West 18.4 mph 32.2 mph N/A   Partly Cloudy
8:55 PM 37.4 °F 28.9 °F 15.8 °F 41% 30.17 in 10.0 mi West 13.8 mph 28.8 mph N/A   Mostly Cloudy
9:15 PM 37.4 °F 30.8 °F 17.6 °F 45% 30.19 in 10.0 mi West 9.2 mph 18.4 mph N/A   Overcast
10:35 PM 35.6 °F 26.6 °F 15.8 °F 44% 30.23 in 10.0 mi West 13.8 mph 23.0 mph N/A   Overcast
10:55 PM 35.6 °F 26.2 °F 14.0 °F 41% 30.24 in 10.0 mi West 15.0 mph 23.0 mph N/A   Overcast
11:55 PM 35.6 °F 27.5 °F 14.0 °F 41% 30.26 in 10.0 mi West 11.5 mph - N/A   Overcast